Location: Bieg
(49.3499°N, 10.3835°E)
Time: 01:28:03
(UTC+00:00)

Cosmos 1733 Rocket - Pass Details

Date: 23 May 2024
Orbit: 600 x 624 km, 82.5° (Epoch: 12 June)

Event Time Altitude Azimuth Distance (km) Brightness Sun altitude
Rises 00:24:22 0° 344° (NNW) 2,865 7.4 -18.3°
Reaches altitude 10° 00:26:39 10° 338° (NNW) 1,959 6.3 -18.2°
Maximum altitude 00:30:45 43° 267° (W) 852 3.6 -18.0°
Enters shadow 00:31:55 35° 227° (SW) 987 3.6 -18.0°
